Content
SEND FEEDBACK

Daily
Averages
Monthly
Summary
United States of America

SHICKSHINNY, PENNSYLVANIA


Home > North America > United States > Pennsylvania
Elevation: 244 meters     Latitude: 41 12N     Longitude: 076 08W

WEATHER
 
SELECT A DAY
Number of Records: 218,565;   Date Range: 1/1/95 - 10/24/14
 
SHARE

PRINT THIS DATA

[ ← Previous Day ]
WEATHER ALMANAC - 13 FEBRUARY, 2013
[ Next Day → ]
[ °F ]   °C
Weather ElementAverageHighLow
Temperature0.5 °C5 °C (1:54 pm)-5 °C (4:54 am)
Dewpoint-3.4 °C0 °C (9:30 pm)-7.8 °C (6:54 am)
Humidity77.5 %100 % (9:30 pm)51 % (1:54 pm)
Barometer1007.8 hPa1013.9 hPa (1:54 am)1005.4 hPa (4:54 pm)
Wind Speed3.2 km/h16.7 km/h (7:54 pm)
Weather ElementAverage
Visibility9.2 km
Wind DirectionESE (102.2 °)

Weather ElementTotal
Precipitation5.59 mm
Heating Degree Days18.3 (Base 18.3)
Averaged from 36 records on 13 February, 2013
WEATHER CONDITIONS BREAKOUT
WIND DIRECTION BREAKOUT
WEATHER BY HOUR - 13 FEBRUARY, 2013
[ °F ]   °C
Local TimeTemperatureDewpointHumidityBarometerVisibilityWind DirectionWind SpeedGust SpeedPrecipitationEventsConditions
1:54 AM-1.7 °C-6.7 °C69 %1013.9 hPa16.1 kmCalmPartly Cloudy
2:54 AM-2.2 °C-6.7 °C72 %1013.9 hPa16.1 kmCalmClear
3:54 AM-3.9 °C-7.2 °C78 %1012.5 hPa16.1 kmCalmClear
4:54 AM-5 °C-7.2 °C85 %1012.5 hPa16.1 kmCalmClear
5:54 AM-3.9 °C-7.2 °C78 %1012.2 hPa16.1 kmEast (100°)7.4 km/hClear
6:54 AM-5 °C-7.8 °C81 %1012.2 hPa16.1 kmEast (100°)5.6 km/hClear
7:54 AM-4.4 °C-7.2 °C81 %1011.9 hPa12.9 kmESE (110°)5.6 km/hClear
8:54 AM-1.1 °C-6.1 °C69 %1011.5 hPa12.9 kmCalmClear
9:54 AM0.6 °C-5.6 °C64 %1010.5 hPa16.1 kmCalmClear
10:54 AM1.7 °C-6.1 °C57 %1010.5 hPa16.1 kmNE (40°)5.6 km/hClear
11:54 AM2.8 °C-5.6 °C54 %1010.2 hPa16.1 kmCalmClear
12:54 PM3.9 °C-5 °C53 %1008.5 hPa16.1 kmNNW (330°)7.4 km/hClear
1:54 PM5 °C-4.4 °C51 %1007.8 hPa16.1 kmVariable5.6 km/hClear
2:54 PM5 °C-4.4 °C51 %1006.4 hPa16.1 kmCalmClear
3:54 PM5 °C-4.4 °C51 %1005.8 hPa16.1 kmCalmClear
4:54 PM4.4 °C-4.4 °C53 %1005.4 hPa16.1 kmCalmMostly Cloudy
5:54 PM3.3 °C-4.4 °C57 %1005.4 hPa16.1 kmCalmOvercast
6:54 PM2.8 °C-3.9 °C62 %1005.4 hPa16.1 kmCalmOvercast
7:54 PM2.8 °C-2.2 °C70 %1006.1 hPa9.7 kmNW (310°)16.7 km/h0 mmSnowLight Snow
8:04 PM2 °C-2 °C75 %1005.4 hPa8 kmNW (320°)11.1 km/h0 mmSnowLight Snow
8:17 PM1 °C-1 °C87 %1005.8 hPa4 kmWNW (290°)7.4 km/h0 mmSnowLight Snow
8:28 PM1 °C-1 °C87 %1005.8 hPa1.9 kmWNW (300°)7.4 km/h0.25 mmSnowLight Snow
8:50 PM1 °C-1 °C87 %1005.8 hPa1.6 kmNW (310°)5.6 km/h0.76 mmSnowLight Snow
8:54 PM0.6 °C-0.6 °C92 %1006.4 hPa1.6 kmWNW (300°)5.6 km/h0.76 mmSnowLight Snow
9:01 PM1 °C-1 °C87 %1005.8 hPa1.3 kmWNW (290°)5.6 km/h0.25 mmSnowLight Snow
9:08 PM1 °C-1 °C87 %1005.4 hPa1.3 kmCalm0.25 mmSnowLight Snow
9:30 PM0 °C0 °C100 %1005.8 hPa0.8 kmCalm0.76 mmFog-SnowSnow
9:50 PM0 °C-1 °C93 %1005.8 hPa1.3 kmCalm1.02 mmSnowLight Snow
9:54 PM0 °C-0.6 °C96 %1006.4 hPa1.6 kmCalm1.02 mmSnowLight Snow
10:38 PM0 °C-1 °C93 %1005.4 hPa2.9 kmCalm0.25 mmSnowLight Snow
10:54 PM0 °C-0.6 °C96 %1005.8 hPa2.9 kmCalm0.25 mmOvercast
10:56 PM0 °C-1 °C93 %1005.4 hPa3.2 kmCalmOvercast
11:05 PM0 °C0 °C100 %1005.4 hPa2.9 kmCalmOvercast
11:38 PM0 °C-1 °C93 %1005.4 hPa0.8 kmWNW (300°)5.6 km/hFogFog
11:44 PM0 °C-1 °C93 %1005.4 hPa0.3 kmWNW (300°)5.6 km/hFogFog
11:54 PM0 °C-0.6 °C96 %1006.4 hPa0.3 kmWest (280°)5.6 km/hFogFog
Hourly data recorded from KAVP, located 0 kilometers away from Shickshinny, Pennsylvania







STORIES FROM OUR PARTNERS